Lexington Weather

Lexington, Massachusetts, USA

73°F
9/22/2021 1:48pm 
  • Lexington Conditions: Overcast
  • Temperature: 73.0°F / 22.8°CColder 2.2°F than last hour.
  • Dew Point: 68.2°FDecreased 0.3°Fsince last hour.
  • Relative Humidity: 85%Increased 5.0% since last hour.
  • Wind: Wind from W W 1 mph, 10-min avg: 3 mph, gust: 12 mph
  • Barometer: 30.10 in Steady
  • Visibility: 10 miles
  • Rain Today: 0.00 in
  •   

Regional Weather Roundup
for Boston / Norton, MA

        
000
ASUS41 KBOX 170504
RWRBOX

REGIONAL WEATHER ROUNDUP
NATIONAL WEATHER SERVICE BOSTON/NORTON MA
100 AM EDT FRI SEP 17 2021

NOTE:  "FAIR" INDICATES FEW OR NO CLOUDS BELOW 12,000 FEET WITH NO 
SIGNIFICANT WEATHER AND/OR OBSTRUCTIONS TO VISIBILITY.

MAZALL-170600-
EASTERN MASSACHUSETTS
  
CITY           SKY/WX    TMP DP  RH WIND       PRES   REMARKS
BOSTON         CLOUDY    66  61  84 N7        30.32F                  
BEVERLY        CLOUDY    64  33  31 N5        30.31F                  
LAWRENCE       CLOUDY    63  61  93 N5        30.35S                  
BEDFORD        CLOUDY    63  61  93 N5        30.31F                  
BLUE HILL      NOT AVBL                                               
NORWOOD        CLOUDY    65  61  87 NE6       30.31F                  
MARSHFIELD     CLOUDY    66  63  88 VRB6      30.30F                  
PLYMOUTH       CLOUDY    65  63  93 NE8       30.30F                  
TAUNTON        MOCLDY    65  62  90 CALM      30.30F                  
NEW BEDFORD    CLOUDY    66  64  93 NE6       30.29S                  
$$

MAZALL-170600-
CAPE COD AND THE ISLANDS
  
CITY           SKY/WX    TMP DP  RH WIND       PRES   REMARKS
FALMOUTH       CLOUDY    66  66 100 NE14      30.30S FOG              
HYANNIS        CLOUDY    66  66 100 NE5       30.29R FOG              
CHATHAM        LGT RAIN  66  65  96 NE7       30.31S FOG              
PROVINCETOWN   CLOUDY    65  64  97 NE10      30.31F                  
NANTUCKET      CLOUDY    68  66  93 E9        30.29R                  
MARTHAS VNYRD  CLOUDY    68  67  96 NE10      30.29S FOG              
$$
 
MAZALL-170600-
CENTRAL AND WESTERN MASSACHUSETTS
  
CITY           SKY/WX    TMP DP  RH WIND       PRES   REMARKS
WORCESTER      CLOUDY    61  58  90 NE6       30.34S                  
FITCHBURG      CLOUDY    62  58  86 CALM      30.34F                  
ORANGE         CLOUDY    63  59  87 NE3       30.33F                  
SPRINGFIELD    CLOUDY    65  61  86 CALM      30.30S                  
WESTFIELD      CLOUDY    66  64  93 N3        30.31S                  
NORTH ADAMS    CLOUDY    66  61  84 E8        30.30F                  
PITTSFIELD     CLOUDY    64  61  90 NE5       30.31S                  
$$
 
RIZALL-170600-
RHODE ISLAND
  
CITY           SKY/WX    TMP DP  RH WIND       PRES   REMARKS
PROVIDENCE     CLOUDY    67  63  87 N8        30.30F                  
NEWPORT        CLOUDY    66  63  90 NE8       30.29S                  
BLOCK ISLAND   CLOUDY    66  64  93 NE7       30.28F                  
SMITHFIELD     CLOUDY    63  62  97 NE7       30.32S                  
WESTERLY       CLOUDY    64  64 100 NE7       30.28S                  
$$
 
CTZALL-170600-
CONNECTICUT
  
CITY           SKY/WX    TMP DP  RH WIND       PRES   REMARKS
BRADLEY INTL   CLOUDY    66  62  87 N8        30.30F                  
HARTFORD       CLOUDY    68  62  81 N5        30.29F                  
BRIDGEPORT     CLOUDY    71  66  84 NE10      30.26S                  
DANBURY        CLOUDY    70  66  87 E6        30.28F                  
GROTON         CLOUDY    67  63  87 NE9       30.27S                  
NEW HAVEN      CLOUDY    71  67  87 NE9       30.26F                  
CHESTER        CLOUDY    66  64  94 NE7       30.28F                  
MERIDEN        CLOUDY    67  63  87 NE6       30.28F                  
WILLIMANTIC    CLOUDY    64  61  90 NE5       30.30F                  
OXFORD         CLOUDY    64  64 100 NE12      30.29F                  
$$

MEZ002-015-021-024-NHZ003-005-008-011-012-014-VTZ005-008-170600-
NORTHERN NEW ENGLAND
  
CITY           SKY/WX    TMP DP  RH WIND       PRES   REMARKS
PORTLAND ME    CLEAR     55  55 100 N5        30.35S                  
BANGOR ME      PTCLDY    52  52 100 CALM      30.37S                  
CONCORD NH     CLOUDY    59  56  89 N5        30.33F                  
MANCHESTER NH  PTCLDY    63  58  83 CALM      30.32F                  
NASHUA NH      PTCLDY    61  61 100 CALM      30.34F                  
PORTSMOUTH NH  MOCLDY    60  57  92 N5        30.34F                  
JAFFREY NH     CLEAR     59  58  96 CALM      30.35F                  
KEENE NH       CLEAR     59  58  96 CALM      30.33F                  
BURLINGTON VT  PTCLDY    59  56  89 S3        30.27F                  
MT. WASHINGTON FOG       45  45 100 W26         N/A  VSB 1/16         
$$

NYZ052-076-170600-
EASTERN NEW YORK
  
CITY           SKY/WX    TMP DP  RH WIND       PRES   REMARKS
ALBANY         PTCLDY    64  63  96 S5        30.26F                  
NEW YORK CITY  CLOUDY    72  66  81 NE10      30.23S                  
$$
 
ANZALL-170600-
MARINE OBSERVATIONS
  
STATION/POSITION TIME  TEMP    WIND        PRES    VSBY  WAVE
                       AIR SEA DIR/SP/G                  HT/PER
                 (UTC) (F)     (DEG/KT/KT) (MB)    (MI)  (FT/S)
BOSTON BUOY      0440      66   40/ 10/ 12 1026.8F
BUZZARDS BAY     0400           40/ 17/ 18 1026.5S
NANTUCKET SOUND  0440   69 72   50/ 16/ 17 1025.5F
MASS BAY-STELLWA 0404   65      60/ 10/ 12 1026.6F  1 7/8  2/ 4
ISLE OF SHOALS   0400   64      20/  4/  5 1026.6F
S OF BLOCK IS    0426      69                N/A           3/ 8
$$

......................KEY.........................
  SKY/WX - SKY CONDITION/PRESENT WEATHER
  TMP    - TEMPERATURE IN FAHRENHEIT
  DWPT   - DEWPOINT IN FAHRENHEIT
  RH     - RELATIVE HUMIDITY IN PERCENT
  WIND   - DIRECTION AND SPEED IN MPH
  PRES   - MEAN SEA LEVEL PRESSURE IN INCHES OF HG
  WCI    - WIND CHILL INDEX
  VSB    - VISIBILITY IN MILES
  HX     - HEAT INDEX
  TC     - TEMPERATURE IN CELSIUS
  VRB    - VARIABLE WIND DIRECTION
  N/A    - NOT AVAILABLE
  
      

Other recent Regional Weather Roundups

Wed Sep 22, 1:04pm

Wed Sep 22, 12:05pm

Wed Sep 22, 11:04am

Wed Sep 22, 10:04am

Wed Sep 22, 9:04am

Wed Sep 22, 8:04am

Wed Sep 22, 7:04am

Wed Sep 22, 6:04am

Wed Sep 22, 5:04am

Wed Sep 22, 4:04am

Wed Sep 22, 3:04am

Wed Sep 22, 2:04am

Wed Sep 22, 1:04am

Wed Sep 22, 12:04am

Tue Sep 21, 11:04pm

Tue Sep 21, 10:04pm

Tue Sep 21, 9:04pm

Tue Sep 21, 8:04pm

Tue Sep 21, 7:04pm

Tue Sep 21, 6:04pm

Tue Sep 21, 5:04pm

Tue Sep 21, 4:04pm

Tue Sep 21, 3:04pm

Tue Sep 21, 2:04pm

Tue Sep 21, 1:04pm

Tue Sep 21, 12:04pm

Tue Sep 21, 11:04am

Tue Sep 21, 10:04am

Tue Sep 21, 9:04am

Tue Sep 21, 8:04am

Tue Sep 21, 7:04am

Tue Sep 21, 6:04am

Tue Sep 21, 5:04am

Tue Sep 21, 4:04am

Tue Sep 21, 3:04am

Tue Sep 21, 2:04am

Tue Sep 21, 1:04am

Tue Sep 21, 12:04am

Mon Sep 20, 11:04pm

Mon Sep 20, 10:04pm

Mon Sep 20, 9:04pm

Mon Sep 20, 8:04pm

Mon Sep 20, 7:04pm

Mon Sep 20, 6:04pm

Mon Sep 20, 5:04pm

Mon Sep 20, 4:04pm

Mon Sep 20, 3:04pm

Mon Sep 20, 2:04pm

Mon Sep 20, 1:04pm

Mon Sep 20, 12:04pm

Mon Sep 20, 11:04am

Mon Sep 20, 10:04am

Mon Sep 20, 9:04am

Mon Sep 20, 7:04am

Mon Sep 20, 6:04am

Mon Sep 20, 5:04am

Mon Sep 20, 4:04am

Mon Sep 20, 3:04am

Mon Sep 20, 2:04am

Mon Sep 20, 1:04am

Mon Sep 20, 12:04am

Sun Sep 19, 11:04pm

Sun Sep 19, 10:04pm

Sun Sep 19, 9:04pm

Sun Sep 19, 8:04pm

Sun Sep 19, 7:04pm

Sun Sep 19, 6:04pm

Sun Sep 19, 5:04pm

Sun Sep 19, 4:04pm

Sun Sep 19, 3:04pm

Sun Sep 19, 2:05pm

Sun Sep 19, 1:04pm

Sun Sep 19, 12:04pm

Sun Sep 19, 11:04am

Sun Sep 19, 10:05am

Sun Sep 19, 9:04am

Sun Sep 19, 8:04am

Sun Sep 19, 7:04am

Sun Sep 19, 6:04am

Sun Sep 19, 5:04am

Sun Sep 19, 4:04am

Sun Sep 19, 3:04am

Sun Sep 19, 2:04am

Sun Sep 19, 1:04am

Sun Sep 19, 12:04am

Sat Sep 18, 11:05pm

Sat Sep 18, 10:04pm

Sat Sep 18, 9:04pm

Sat Sep 18, 8:04pm

Sat Sep 18, 7:04pm

Sat Sep 18, 6:04pm

Sat Sep 18, 5:04pm

Sat Sep 18, 4:04pm

Sat Sep 18, 3:04pm

Sat Sep 18, 2:04pm

Sat Sep 18, 1:04pm

Sat Sep 18, 12:04pm

Sat Sep 18, 11:04am

Sat Sep 18, 10:04am

Sat Sep 18, 9:04am

Sat Sep 18, 8:04am

Sat Sep 18, 7:04am

Sat Sep 18, 6:04am

Sat Sep 18, 5:04am

Sat Sep 18, 4:04am

Sat Sep 18, 3:04am

Sat Sep 18, 2:04am

Sat Sep 18, 1:04am

Sat Sep 18, 12:04am

Fri Sep 17, 11:04pm

Fri Sep 17, 10:04pm

Fri Sep 17, 9:04pm

Fri Sep 17, 8:04pm

Fri Sep 17, 7:04pm

Fri Sep 17, 6:04pm

Fri Sep 17, 5:04pm

Fri Sep 17, 4:04pm

Fri Sep 17, 3:04pm

Fri Sep 17, 2:04pm

Fri Sep 17, 1:04pm

Fri Sep 17, 12:05pm

Fri Sep 17, 11:04am

Fri Sep 17, 10:04am

Fri Sep 17, 9:04am

Fri Sep 17, 8:04am

Fri Sep 17, 7:04am

Fri Sep 17, 6:04am

Fri Sep 17, 5:04am

Fri Sep 17, 4:04am

Fri Sep 17, 3:04am

Fri Sep 17, 2:04am

Fri Sep 17, 12:04am

Thu Sep 16, 11:04pm

Thu Sep 16, 10:04pm

Thu Sep 16, 9:04pm

Thu Sep 16, 8:04pm

Thu Sep 16, 7:04pm

Thu Sep 16, 6:04pm

Thu Sep 16, 5:04pm

Thu Sep 16, 4:04pm

Thu Sep 16, 3:04pm

Thu Sep 16, 2:04pm

Thu Sep 16, 1:05pm

Thu Sep 16, 12:04pm

Thu Sep 16, 11:05am

Thu Sep 16, 10:05am

Thu Sep 16, 9:04am

Thu Sep 16, 8:04am

Thu Sep 16, 7:04am

Thu Sep 16, 6:04am

Thu Sep 16, 5:04am

Thu Sep 16, 4:04am

Thu Sep 16, 3:04am

Thu Sep 16, 2:04am

Thu Sep 16, 1:04am

Thu Sep 16, 12:04am

Wed Sep 15, 11:04pm

Wed Sep 15, 10:04pm

Wed Sep 15, 9:04pm

Wed Sep 15, 8:04pm

Wed Sep 15, 7:04pm

Wed Sep 15, 6:04pm

Wed Sep 15, 5:05pm

Wed Sep 15, 4:04pm

Wed Sep 15, 3:04pm

Wed Sep 15, 2:04pm

Meta data:

ID: 467532f4-4b1c-451d-b51f-a7271532510f
Link: https://api.weather.gov/products/467532f4-4b1c-451d-b51f-a7271532510f